CAPE
0 0 0 0 0 0 0 0 0 0 0 0 0 0 0 0 3 30 7 2 2 5 9 11 0 5 22 14 4 0 0 0 0 0 0 0 0 0 0 0 0 0 2 2 6 3 3 6 6
0 0 0 0 0 0 0 0 0 0 0 0 0 0 0 0 27 17 40 5 4 10 8 3 4 9 25 1 0 0 0 0 0 0 0 0 0 0 0 0 1 1 2 2 5 3 5 5 3
0 0 0 0 0 0 0 0 0 0 0 0 0 0 0 0 1 36 47 4 15 15 11 19 25 17 0 0 0 0 0 0 0 0 0 0 0 0 0 0 3 5 4 6 10 4 5 7 6
0 0 0 0 0 0 0 0 0 0 0 0 0 0 0 0 0 30 36 2 11 27 38 35 27 6 1 0 0 0 0 0 0 0 0 0 0 0 0 0 3 5 4 8 4 11 3 8 6
0 0 0 0 0 0 0 0 0 0 0 0 0 0 0 5 6 53 45 15 12 27 29 13 5 0 0 0 0 0 0 0 0 0 0 0 0 0 0 0 5 5 5 6 8 8 7 9 5
0 0 0 0 0 0 0 0 0 0 0 0 0 0 1 4 10 60 44 34 34 19 2 0 0 0 0 0 0 0 0 0 0 0 0 0 0 0 0 0 0 2 4 6 6 6 2 3 3
2 0 0 0 0 0 0 0 0 0 0 0 0 0 3 9 9 29 32 48 21 1 0 0 0 0 0 0 0 0 0 0 0 0 0 0 0 0 0 0 0 0 1 2 5 2 1 0 0
0 0 0 0 0 0 0 0 0 0 0 0 0 0 1 11 16 42 20 5 3 0 0 0 0 0 0 0 0 0 0 0 0 0 0 0 0 0 0 0 0 0 0 0 0 0 0 0 0
0 0 0 0 0 0 0 0 0 0 0 0 0 0 4 14 13 11 10 6 1 0 0 0 0 0 0 0 0 0 0 0 0 0 0 0 0 0 0 0 0 0 0 0 0 0 0 0 0
0 0 0 0 0 0 0 0 0 0 0 0 0 0 0 5 29 20 23 20 12 4 0 0 0 0 0 0 0 0 0 0 0 0 0 0 0 0 0 0 0 0 0 0 0 0 0 0 0
0 3 0 0 0 0 0 0 0 0 0 0 0 0 0 0 0 0 3 14 25 3 0 0 0 0 0 0 0 0 0 0 0 0 0 0 0 1 2 2 5 2 1 2 1 0 0 0 0
0 0 0 0 0 0 0 0 0 0 0 0 0 0 0 0 0 0 0 0 0 4 0 0 0 0 0 0 0 0 0 0 0 0 0 0 1 3 4 1 4 1 2 2 3 1 0 0 0
0 0 0 0 0 0 0 0 0 0 0 0 0 0 0 0 0 0 0 0 0 1 0 0 0 0 0 0 0 0 0 0 0 0 1 1 2 2 1 1 0 1 2 1 5 0 0 0 0
0 0 0 0 0 0 0 0 0 0 0 0 0 0 0 0 0 0 0 0 0 0 0 0 0 0 0 0 0 0 0 0 0 1 5 3 1 1 2 2 3 4 2 3 5 1 0 0 0
0 0 0 0 0 0 0 0 0 0 0 0 0 0 0 0 0 0 0 0 0 0 0 0 0 0 0 0 0 0 0 0 0 4 3 0 5 1 2 6 3 6 3 1 3 2 2 0 0
0 0 0 0 0 0 0 0 0 0 0 0 0 0 0 0 1 1 0 0 0 0 0 0 0 0 0 0 0 0 0 0 1 3 1 3 6 2 6 4 1 3 6 2 3 4 2 0 0
0 2 0 0 0 0 0 0 0 0 0 0 0 0 0 0 0 0 0 0 0 0 0 0 0 0 0 0 0 0 0 1 3 1 6 9 10 10 5 6 3 4 10 9 8 3 0 2 0
0 3 1 0 0 0 0 0 0 0 0 0 0 0 0 0 1 0 0 0 0 0 0 0 0 0 0 0 0 2 2 2 2 13 7 3 3 15 14 18 19 21 20 18 16 12 12 3 0
0 1 0 0 0 0 0 0 0 0 0 0 0 0 0 0 0 0 0 0 0 0 0 0 0 0 0 3 0 0 0 4 5 0 0 0 1 1 0 1 8 12 20 18 15 19 13 6 0
0 0 0 0 0 0 0 0 0 0 0 0 0 0 0 0 0 0 0 0 0 0 0 0 0 0 1 0 0 0 1 9 3 0 0 0 0 0 0 0 1 1 1 1 2 1 3 4 5
0 0 0 1 0 0 0 0 0 0 0 0 0 0 0 0 0 0 0 0 0 0 0 0 0 0 0 0 1 0 10 5 1 0 0 0 0 0 0 0 0 0 0 1 1 0 0 3 0
0 0 0 2 3 3 0 0 0 0 0 0 0 0 0 0 0 0 0 0 0 0 0 0 0 0 0 0 0 1 0 0 1 0 0 0 0 0 0 0 0 0 0 1 1 0 0 1 1
0 0 0 5 7 2 0 0 0 0 0 0 0 0 0 0 0 0 0 0 0 0 0 0 0 0 0 0 0 1 0 0 0 0 0 0 0 0 0 0 0 0 0 0 0 0 0 0 0
0 0 0 1 4 1 0 0 0 0 0 0 0 0 0 0 0 0 0 0 0 0 0 0 0 0 0 0 0 0 0 0 0 0 0 0 0 0 0 0 0 0 0 0 0 0 0 0 0
0 0 4 1 1 1 0 0 0 0 0 0 0 0 0 0 0 0 0 0 0 0 0 0 0 0 0 0 0 0 0 0 0 0 0 0 0 0 0 0 0 0 0 0 0 0 0 0 0
0 0 0 1 0 0 0 0 0 0 0 0 0 0 0 0 0 0 0 0 0 0 0 0 0 0 0 0 0 0 0 0 0 0 0 0 0 0 0 0 0 0 0 0 0 0 0 0 0
0 0 0 0 0 0 0 0 0 0 0 0 0 0 0 0 0 0 0 0 0 0 0 0 0 0 0 0 0 0 0 0 0 0 0 0 0 0 0 0 0 0 0 0 0 0 0 0 0
0 0 0 0 0 0 0 0 0 0 0 0 0 0 0 0 0 0 0 0 0 0 0 0 0 0 0 0 0 0 0 0 0 0 0 0 0 0 0 0 0 0 0 0 0 0 0 0 0
0 0 0 0 0 0 0 0 0 0 0 0 0 0 0 0 0 0 0 0 0 0 0 0 0 0 0 0 0 0 0 0 0 0 0 0 0 0 0 0 0 0 0 0 0 0 0 0 0
0 0 0 0 0 0 0 0 0 0 0 0 0 0 0 0 0 0 0 0 0 0 0 0 0 0 0 0 0 0 0 0 0 0 0 0 0 0 0 0 0 0 0 0 0 0 0 0 0
CIN
0 0 0 0 0 0 0 0 0 0 0 0 0 0 0 0 -16 -26 -1 -1 -1 -1 0 -2 0 -1 -3 -4 -20 0 0 0 0 0 0 0 0 0 0 0 0 0 0 0 0 -1 -1 -1 -1
0 0 0 0 0 0 0 0 0 0 0 0 0 0 0 0 -105 -79 -27 -1 -1 -1 -1 0 -6 -5 -3 -14 -11 0 0 0 0 0 0 0 0 0 0 0 0 0 -1 -1 -1 -1 0 -1 -1
0 0 0 0 0 0 0 0 0 0 0 0 0 0 0 0 -3 -63 -34 -1 -2 -1 -1 -6 -3 -5 -22 0 0 0 0 0 0 0 0 0 0 0 0 0 0 0 0 0 -1 -1 0 -1 0
0 0 0 0 0 0 0 0 0 0 0 0 0 0 0 -1 -1 -67 -37 -4 -7 -4 -7 -12 -6 -23 -49 0 0 0 0 0 0 0 0 0 0 0 0 0 0 0 0 0 -1 0 -1 0 0
0 0 0 0 0 0 0 0 0 0 0 0 0 0 0 0 -1 -31 -26 -1 -10 -7 -5 -17 -28 -18 0 0 0 0 0 0 0 0 0 0 0 0 0 0 0 0 -1 -1 -1 0 0 0 0
0 0 0 0 0 0 0 0 0 0 0 0 0 0 0 0 -2 -17 -26 -1 -1 -11 -20 0 0 0 0 0 0 0 0 0 0 0 0 0 0 0 0 0 0 0 0 0 0 0 0 0 0
-1 0 0 0 0 0 0 0 0 0 0 0 0 0 -1 -1 -3 -6 0 -1 -2 -34 0 0 0 0 0 0 0 0 0 0 0 0 0 0 0 0 0 0 0 0 0 0 0 0 0 0 0
0 0 0 0 0 0 0 0 0 0 0 0 0 0 0 0 0 -13 -1 -8 -26 0 0 0 0 0 0 0 0 0 0 0 0 0 0 0 0 0 0 0 0 0 0 0 0 0 0 0 0
0 0 0 0 0 0 0 0 0 0 0 0 0 0 0 -2 -5 -7 -9 -11 -13 0 0 0 0 0 0 0 0 0 0 0 0 0 0 0 0 0 0 0 0 0 0 0 0 0 0 0 0
0 0 0 0 0 0 0 0 0 0 0 0 0 0 0 -2 -2 -3 -1 0 -11 -21 0 0 0 0 0 0 0 0 0 0 0 0 0 0 0 0 0 0 0 0 0 0 0 0 0 0 0
0 -1 0 0 0 0 0 0 0 0 0 0 0 0 0 0 0 -1 -1 -4 -1 -17 0 0 0 0 0 0 0 0 0 0 0 0 0 0 0 0 0 0 -1 -1 -1 -2 -1 0 0 0 0
0 0 0 0 0 0 0 0 0 0 0 0 0 0 0 0 0 0 0 0 0 -4 0 0 0 0 0 0 0 0 0 0 0 0 0 0 0 -1 0 -1 -1 -1 -1 0 -1 0 0 0 0
0 0 0 0 0 0 0 0 0 0 0 0 0 0 0 0 0 0 0 0 0 0 0 0 0 0 0 0 0 0 0 0 0 0 0 0 0 -1 -2 -1 -1 -4 0 0 -1 0 0 0 0
0 0 0 0 0 0 0 0 0 0 0 0 0 0 0 0 0 0 0 0 0 0 0 0 0 0 0 0 0 0 0 0 0 0 0 0 0 -1 -2 -2 -2 -1 -3 -1 0 -1 -1 0 0
0 0 0 0 0 0 0 0 0 0 0 0 0 0 0 0 0 0 0 0 0 0 0 0 0 0 0 0 0 0 0 0 0 0 0 0 -1 -4 -4 -3 -2 -4 0 -1 -1 0 -1 0 0
0 0 0 0 0 0 0 0 0 0 0 0 0 0 0 0 0 0 0 0 0 0 0 0 0 0 0 0 0 0 0 0 0 -1 -1 -1 -6 -10 -4 -5 -6 -5 -2 0 -1 -1 -1 0 0
0 0 0 0 0 0 0 0 0 0 0 0 0 0 0 0 0 0 0 0 0 0 0 0 0 0 0 0 0 0 0 0 -1 -2 -5 -9 -11 -10 -8 -7 -6 -11 -9 -6 -4 -1 0 -1 -1
0 0 0 0 0 0 0 0 0 0 0 0 0 0 0 0 0 0 0 0 0 0 0 0 0 0 0 0 0 -1 0 0 -5 0 -4 -16 -17 -6 -6 -1 -2 -5 -3 -4 -1 0 -2 0 -1
0 0 0 0 0 0 0 0 0 0 0 0 0 0 0 0 0 0 0 0 0 0 0 0 0 0 -1 0 0 -3 -3 0 -2 0 0 0 0 -1 -1 -20 -17 -10 -1 0 -1 0 0 0 0
0 0 -1 0 0 0 0 0 0 0 0 0 0 0 0 0 0 0 0 0 0 0 0 0 0 0 0 0 0 -1 -1 0 -1 0 0 0 0 0 0 0 0 0 0 0 0 0 -1 -1 -1
0 0 0 -1 -1 0 0 0 0 0 0 0 0 0 0 0 0 0 0 0 0 0 0 0 0 0 0 -1 -1 -1 0 -1 0 0 0 0 0 0 0 0 0 0 0 0 0 0 0 0 -1
0 0 0 -1 -1 0 0 0 0 0 0 0 0 0 0 0 0 0 0 0 0 0 0 0 0 0 0 0 -1 -1 0 0 0 0 0 0 0 0 0 0 0 0 0 0 0 0 0 0 0
0 0 0 -1 -1 -1 0 0 0 0 0 0 0 0 0 0 0 0 0 0 0 0 0 0 0 0 0 0 0 0 -1 0 0 0 0 0 0 0 0 0 0 0 0 0 0 0 0 0 0
0 0 0 0 -2 -1 -1 0 0 0 0 0 0 0 0 0 0 0 0 0 0 0 0 0 0 0 0 0 0 0 0 0 0 0 0 0 0 0 0 0 0 0 0 0 0 0 0 0 0
0 -1 0 -1 -1 0 0 0 0 0 0 0 0 0 0 0 0 0 0 0 0 0 0 0 0 0 0 0 0 0 0 0 0 0 0 0 0 0 0 0 0 0 0 0 0 0 0 0 0
0 0 0 0 -1 -1 0 0 0 0 0 0 0 0 0 0 0 0 0 0 0 0 0 0 0 0 0 0 0 0 0 0 0 0 0 0 0 0 0 0 0 0 0 0 0 0 0 0 0
0 0 0 0 -3 0 0 0 0 0 0 0 0 0 0 0 0 0 0 0 0 0 0 0 0 0 0 0 0 0 0 0 0 0 0 0 0 0 0 0 0 0 0 0 0 0 0 0 0
0 0 0 -2 -1 -2 0 0 0 0 0 0 0 0 0 0 0 0 0 0 0 0 0 0 0 0 0 0 0 0 0 0 0 0 0 0 0 0 0 0 0 0 0 0 0 0 0 0 0
0 0 0 0 0 0 0 0 0 0 0 0 0 0 0 0 0 0 0 0 0 0 0 0 0 0 0 0 0 0 0 0 0 0 0 0 0 0 0 0 0 0 0 0 0 0 0 0 0
0 0 0 0 0 0 0 0 0 0 0 0 0 0 0 0 0 0 0 0 0 0 0 0 0 0 0 0 0 0 0 0 0 0 0 0 0 0 0 0 0 0 0 0 0 0 0 0 0
Wind_Speed
20 21 20 17 20 19 20 17 16 15 13 13 13 14 8 11 14 13 9 11 14 18 18 18 18 19 19 19 20 21 21 20 21 22 23 24 25 27 27 27 27 28 28 29 29 30 30 29 29
16 18 17 16 21 21 18 15 16 13 11 7 9 11 12 12 10 8 9 10 13 16 18 17 18 18 19 19 20 21 22 22 22 23 24 25 26 27 27 27 28 28 28 29 29 29 30 30 29
13 14 16 18 21 21 17 17 14 10 9 11 12 11 12 11 11 11 9 11 10 13 15 16 16 17 18 19 21 22 22 23 23 24 25 26 27 27 27 27 28 28 28 29 29 30 31 32 31
13 14 17 22 22 18 15 15 14 12 11 13 9 11 10 12 14 10 8 10 10 10 12 14 14 16 17 19 21 22 22 23 24 25 26 27 27 27 28 28 28 28 28 29 29 30 31 32 32
12 12 16 20 21 19 15 16 16 15 13 11 14 12 12 12 10 6 8 9 9 9 12 13 14 16 18 19 21 21 22 23 24 25 26 27 28 28 28 28 28 28 28 29 29 30 31 32 32
17 16 18 17 16 18 14 16 17 17 14 12 10 10 13 12 7 6 7 9 9 9 11 12 14 15 17 19 20 21 22 23 25 26 27 28 28 28 28 28 28 28 28 29 29 30 32 33 33
19 19 22 19 17 18 17 17 17 16 14 15 16 14 11 9 7 7 7 8 8 9 10 12 13 15 17 19 20 21 22 23 25 27 28 28 27 27 28 27 28 28 28 28 29 30 32 33 32
17 19 21 20 20 17 17 16 17 17 15 12 16 14 11 8 8 7 7 8 8 10 11 13 14 15 16 17 19 20 22 23 25 26 29 28 21 27 25 27 27 27 27 28 29 31 32 32 30
18 23 25 20 20 20 18 18 14 15 13 13 14 12 12 6 7 7 8 9 10 12 12 14 15 15 15 16 18 19 21 22 24 26 28 28 27 28 26 27 27 26 27 27 29 30 30 31 31
21 23 21 13 18 20 18 16 17 14 13 12 11 11 11 9 9 8 9 10 12 13 14 14 15 15 16 17 18 20 21 23 25 27 28 27 27 26 24 24 25 23 28 23 27 29 31 32 31
21 22 15 15 17 18 18 15 18 14 14 16 16 14 12 10 11 12 13 14 13 14 14 14 14 15 16 17 18 20 21 23 24 27 27 27 26 27 27 27 26 27 28 28 29 29 30 31 30
20 18 12 14 15 14 14 11 16 14 16 15 14 13 12 12 14 16 17 18 17 15 14 14 14 15 16 17 18 20 22 23 24 25 27 26 27 27 28 28 28 27 28 28 29 29 29 30 29
17 16 15 13 11 12 10 11 12 15 15 13 14 13 13 14 15 17 18 18 18 16 14 15 15 15 16 17 18 20 22 23 24 24 26 27 27 28 27 27 27 27 28 28 28 29 29 29 29
17 16 15 17 16 16 17 17 15 15 16 15 14 16 15 16 17 17 19 19 17 15 16 16 15 16 16 17 19 20 22 22 22 24 25 26 26 26 26 27 27 27 28 28 28 29 28 29 28
16 18 17 18 20 21 16 20 19 14 14 16 15 16 17 17 17 18 18 18 17 16 15 16 16 16 16 17 19 20 21 21 22 23 25 25 26 26 26 27 28 28 28 28 27 28 28 28 28
19 19 24 20 19 19 20 27 18 16 15 17 18 16 18 18 18 17 17 17 16 15 15 16 15 15 16 17 19 19 20 20 21 23 24 25 26 26 26 27 28 28 28 28 28 28 28 29 28
22 28 27 24 21 20 20 24 19 18 18 17 18 17 15 19 19 17 17 16 15 15 15 16 16 15 16 17 18 19 19 20 21 23 24 25 26 26 25 26 28 28 28 28 28 28 29 29 28
26 28 28 29 22 26 27 30 22 21 20 18 17 16 15 15 19 18 16 16 15 15 15 16 17 16 16 16 17 18 18 19 21 22 23 24 25 26 26 27 28 28 28 28 29 28 28 30 29
22 24 27 28 25 29 34 35 30 22 22 21 19 18 18 16 16 18 17 15 15 14 15 16 17 17 17 17 17 18 18 18 20 21 23 24 25 26 26 27 28 28 28 29 29 28 28 30 32
21 23 25 22 22 28 33 39 36 26 27 24 21 20 20 18 18 16 17 17 16 16 16 16 17 17 17 17 17 16 16 17 18 20 22 23 24 26 26 26 27 27 27 28 29 30 27 28 31
23 25 25 26 21 26 31 40 39 34 31 28 26 23 22 21 19 16 15 18 17 17 17 17 17 17 17 15 14 14 14 16 18 20 21 23 24 25 26 26 26 26 26 27 28 29 30 29 28
25 21 25 25 24 31 21 40 33 30 33 31 28 27 26 23 20 18 17 19 18 18 18 17 17 17 17 16 15 15 16 16 17 19 19 21 24 24 25 25 25 25 25 27 28 28 28 29 30
23 18 19 21 24 30 27 34 33 27 28 29 26 27 26 25 21 21 19 18 17 16 18 18 17 16 16 15 14 14 15 15 17 18 19 20 22 24 24 24 24 25 25 26 27 28 28 28 28
18 20 20 23 27 35 32 29 35 27 28 28 24 24 24 24 21 20 17 16 17 15 15 16 15 15 15 14 15 14 14 15 16 16 18 19 20 22 23 23 24 24 25 26 26 27 28 28 29
21 21 29 30 30 34 25 28 38 27 24 25 24 21 22 21 21 19 19 17 17 15 14 14 14 14 14 14 14 14 14 14 15 15 16 17 19 20 22 23 24 24 25 25 26 26 28 29 29
25 24 28 34 34 33 24 31 29 25 24 22 24 16 16 18 18 20 19 18 18 16 15 13 13 13 13 13 14 15 15 14 14 14 14 16 17 19 20 22 23 24 24 25 26 26 26 28 29
27 35 29 38 37 37 33 31 32 26 23 21 20 15 15 16 17 17 16 16 17 16 15 13 12 11 10 11 13 13 12 11 11 12 13 15 16 18 20 21 22 23 24 25 25 26 27 27 28
33 26 31 31 36 38 34 35 33 27 22 19 16 13 14 14 15 15 15 15 15 16 15 14 12 12 11 11 11 10 10 10 11 12 13 14 16 17 19 20 22 23 23 24 24 25 27 27 28
33 34 30 31 35 35 38 31 22 23 23 18 14 14 13 14 15 14 14 13 12 12 12 11 11 11 11 9 7 7 8 9 10 11 13 14 15 17 18 20 21 22 23 24 24 25 26 27 27
37 39 35 37 33 36 42 52 29 22 18 16 14 13 10 11 12 13 13 13 11 11 11 9 7 7 7 6 6 6 7 7 9 11 12 13 15 16 18 19 20 21 22 23 24 25 25 25 26
Wind_Direction
265 267 273 269 253 255 248 250 257 253 261 271 266 263 285 292 282 292 27 304 58 86 87 89 87 99 80 50 37 20 6 354 347 342 341 339 338 340 339 336 336 336 336 338 345 351 360 5 6
280 271 266 262 247 245 246 255 246 264 275 291 278 276 275 287 319 351 317 16 66 70 92 79 91 85 63 45 33 24 17 3 354 345 341 341 339 339 339 336 333 336 340 343 350 356 2 3 6
292 279 259 249 248 245 250 245 257 265 283 273 270 284 278 289 298 298 352 45 37 55 64 70 69 57 55 41 34 29 25 13 359 353 346 346 347 344 339 336 338 342 347 352 355 358 360 358 1
285 275 260 249 243 257 257 255 256 260 274 279 286 281 293 294 281 304 15 34 30 357 14 56 47 45 43 44 34 26 25 21 7 357 352 350 346 344 342 341 343 349 354 357 360 359 359 359 360
292 287 262 254 247 258 268 263 257 256 271 280 274 281 282 295 305 337 27 39 10 12 32 34 33 37 42 32 28 25 24 15 4 357 353 353 348 347 349 348 349 353 359 359 1 1 1 360 1
272 272 259 253 248 253 271 267 260 258 268 279 290 289 285 287 306 315 15 11 25 12 16 17 17 18 18 17 13 20 20 15 5 357 352 356 357 354 353 355 357 2 1 1 2 0 359 360 1
265 263 253 250 254 253 264 268 260 262 264 274 279 284 287 284 290 308 342 2 2 352 358 3 7 20 14 11 14 12 16 16 9 1 356 359 14 9 4 3 0 1 0 1 2 359 356 358 6
272 267 257 254 249 256 266 266 266 269 271 287 278 286 281 280 279 307 332 333 333 334 343 344 349 354 7 11 10 10 11 10 11 13 0 10 38 17 21 10 7 8 6 5 0 356 356 360 10
270 257 251 256 248 255 266 261 277 281 276 286 287 286 292 296 285 300 312 317 316 317 327 323 332 340 355 6 10 20 15 15 11 6 0 5 8 8 13 15 14 14 11 13 7 6 7 7 11
264 260 260 268 262 261 263 269 269 276 274 283 293 297 298 290 280 289 300 307 311 314 317 321 331 343 350 0 3 5 2 3 358 354 354 1 7 12 18 20 20 23 9 24 12 9 6 6 9
264 265 267 266 269 270 266 277 269 269 277 278 276 280 289 294 285 285 291 298 304 309 313 319 325 337 346 350 357 358 359 3 4 355 356 1 5 3 4 5 7 7 5 4 3 5 7 8 13
261 273 265 263 271 275 276 284 274 281 277 287 280 287 290 291 286 284 285 289 297 306 314 320 322 332 335 345 352 356 355 0 2 5 1 2 2 0 0 358 359 3 4 4 4 6 6 7 9
262 262 269 267 276 280 282 285 284 281 285 292 279 287 290 292 291 290 289 291 296 303 313 315 320 328 333 338 345 346 355 2 3 4 0 359 360 359 359 4 4 2 4 5 4 3 5 6 8
267 264 269 264 267 272 274 275 279 285 283 285 284 280 289 291 290 292 293 293 298 304 305 309 318 324 329 335 339 342 352 2 8 6 4 2 2 5 6 4 5 4 2 2 3 3 5 6 9
270 262 267 267 266 269 271 271 270 285 285 280 284 286 285 292 296 294 297 297 300 301 302 308 316 325 331 335 337 345 351 359 2 6 5 4 3 3 3 2 4 3 4 2 3 4 6 6 8
264 266 258 262 268 272 264 267 272 279 278 279 279 286 286 290 294 300 304 304 306 304 301 307 315 323 329 335 335 342 350 357 2 3 4 4 358 358 0 3 2 4 7 6 4 3 2 3 6
264 259 258 265 264 273 265 272 272 275 272 275 277 283 291 287 292 300 304 307 309 307 304 304 311 320 327 332 337 341 349 356 359 3 4 3 355 358 2 2 2 5 8 9 7 6 5 1 4
264 262 262 260 266 264 264 266 277 274 270 271 276 282 285 290 291 295 302 306 311 310 308 308 309 315 322 330 334 338 346 353 356 0 4 5 355 357 1 2 3 9 11 9 7 7 6 4 359
279 268 268 265 271 266 263 266 266 271 270 269 272 275 278 284 292 293 298 304 308 312 311 311 312 313 315 321 329 333 342 345 353 357 1 2 359 358 0 2 1 4 6 5 4 5 4 4 1
278 274 274 281 275 270 271 265 266 268 266 270 270 271 274 277 280 290 293 296 302 307 310 312 313 315 317 321 326 335 340 345 351 357 360 1 360 359 360 1 1 5 8 6 5 4 5 5 5
275 274 276 277 280 279 278 271 266 266 268 269 268 270 271 272 274 282 288 289 296 300 305 309 313 316 318 323 329 336 342 345 346 348 355 359 -0 360 1 3 6 7 8 6 7 6 6 6 7
273 287 281 280 278 277 277 274 274 264 266 264 262 263 266 267 271 275 281 287 294 297 301 305 310 314 317 319 322 324 327 337 342 346 357 358 0 1 4 7 8 8 9 6 7 8 9 8 5
277 294 289 284 281 283 282 280 282 276 267 266 260 260 261 262 265 271 276 284 295 299 297 301 307 312 317 320 325 328 333 339 339 345 354 355 1 2 6 7 8 8 9 8 8 7 7 8 9
282 285 289 288 285 278 278 278 282 281 277 274 264 258 258 259 261 266 275 283 291 300 300 300 302 308 315 322 326 328 333 337 337 345 351 355 357 3 5 9 9 9 8 8 9 10 9 9 8
268 274 274 276 275 277 295 280 276 288 293 285 273 262 258 257 257 261 268 277 286 292 298 301 301 305 313 319 323 333 336 339 341 348 351 356 360 3 4 6 9 9 9 10 11 11 11 9 8
258 261 270 273 275 283 290 283 290 300 296 290 289 271 259 256 258 261 267 274 281 286 291 296 299 305 311 318 322 326 330 335 345 348 355 3 5 5 7 9 10 8 9 10 11 10 11 11 10
263 256 267 277 281 281 281 287 295 296 299 297 290 273 262 260 261 263 265 274 277 283 287 291 299 308 319 327 333 334 339 349 355 2 6 10 8 9 9 8 9 9 9 10 12 12 10 10 9
263 268 260 266 272 274 280 284 285 299 302 295 292 276 267 265 263 263 266 273 275 281 284 284 293 302 315 322 327 337 348 2 2 8 8 12 12 9 9 9 9 9 10 11 11 10 10 9 8
255 259 262 270 265 275 278 284 303 305 304 301 295 288 277 265 262 262 266 271 277 281 282 284 286 295 301 313 336 345 352 355 2 7 10 9 12 11 11 9 9 9 9 9 10 9 8 9 10
261 256 255 262 269 268 274 272 286 305 319 314 308 310 296 273 264 265 263 264 267 272 278 279 285 295 305 315 323 335 348 4 4 8 13 14 14 10 8 8 8 8 8 8 8 8 9 10 10